P/1994 X1 ( McNaught-Russell ) 2012

Japanese version
Home page
Total 6,336 html files since Dec. 4, 1995
Updated on December 2, 2007

---------------------------------------------------------------------

* Profile

* Orbital Elements

Perturbed ephemeris below is based on elements from MPC 24882. 

 Epoch = 2456280.50000 TT   T = 2456264.49652 TT
 Peri. =  171.19403         a =     6.9317363 AU
 Node  =  218.01048 J2000.0 e =     0.8153486
 Incl. =   29.07876         q =     1.2799546 AU

* Finding Charts

* Magnitudes Graph

        m1 = 12.5 + 5 log d + 15 log r

---------------------------------------------------------------------

The orbital elements are calculated using the Minor Planet & Comet Ephemeris Service.
The charts are made with StellaNavigator Ver.8 (AstroArts).
The magnitudes graphs are made with Comet for Windows.

---------------------------------------------------------------------

Copyright(C) 1995-2008 Seiichi Yoshida (comet@aerith.net). All rights reserved.